This is the latest recevied weather packets stored in our database for station/object W4UWO. If no packets are shown the sender has not sent any weather packets the latest 10 day(s).
| Time | Temp. | Humidity | Pressure | Rain* | Wind** | Luminosity | Snow |
|---|---|---|---|---|---|---|---|
| 1788295550 | 36.11° C | 39% | 1018.8 hPa | 0 mm | - | 513 W/m² | - |
| 1788295245 | 35.56° C | 40% | 1018.8 hPa | 0 mm | - | 107 W/m² | - |
| 1788294945 | 35.56° C | 39% | 1018.8 hPa | 0 mm | - | 130 W/m² | - |
| 1788294640 | 36.11° C | 39% | 1019 hPa | 0 mm | - | 146 W/m² | - |
| 1788294340 | 35.56° C | 39% | 1019 hPa | 0 mm | - | 646 W/m² | - |
| 1788294036 | 35.56° C | 39% | 1019 hPa | 0 mm | - | 658 W/m² | - |
| 1788293731 | 36.67° C | 38% | 1019.1 hPa | 0 mm | - | 131 W/m² | - |
| 1788293431 | 36.67° C | 38% | 1018.9 hPa | 0 mm | - | 271 W/m² | - |
| 1788293130 | 36.11° C | 37% | 1019.2 hPa | 0 mm | - | 708 W/m² | - |
| 1788292825 | 35.56° C | 41% | 1019 hPa | 0 mm | - | 652 W/m² | - |
| 1788292523 | 35.56° C | 39% | 1019.2 hPa | 0 mm | - | 156 W/m² | - |
| 1788292223 | 35.56° C | 39% | 1019.2 hPa | 0 mm | - | 179 W/m² | - |
| 1788291918 | 36.11° C | 38% | 1019.2 hPa | 0 mm | - | 186 W/m² | - |
| 1788291614 | 36.11° C | 39% | 1019.4 hPa | 0 mm | - | 616 W/m² | - |
| 1788291313 | 35.56° C | 39% | 1019.5 hPa | 0 mm | - | 628 W/m² | - |
| 1788291013 | 35.56° C | 39% | 1019.5 hPa | 0 mm | - | 156 W/m² | - |
| 1788290709 | 35.56° C | 39% | 1019.6 hPa | 0 mm | - | 777 W/m² | - |
| 1788290404 | 35.56° C | 38% | 1019.6 hPa | 0 mm | - | 791 W/m² | - |
| 1788290100 | 35.56° C | 38% | 1019.5 hPa | 0 mm | - | 136 W/m² | - |
| 1788289795 | 36.67° C | 37% | 1019.7 hPa | 0 mm | - | 346 W/m² | - |
| 1788289505 | 36.67° C | 38% | 1019.7 hPa | 0 mm | - | 814 W/m² | - |
| 1788289189 | 36.67° C | 38% | 1019.7 hPa | 0 mm | - | 821 W/m² | - |
| 1788288884 | 36.67° C | 38% | 1019.6 hPa | 0 mm | - | 820 W/m² | - |
| 1788288583 | 35.56° C | 37% | 1020 hPa | 0 mm | - | 830 W/m² | - |
| 1788288278 | 35.56° C | 39% | 1020.1 hPa | 0 mm | - | 836 W/m² | - |
* Rain latest hour (hover to see other rain measurements)
** Current wind speed in m/s (hover to see current wind gust speed)